Weather in Vendychany

Ukraine / Vinnytsia Region     48°36′54″N   27°47′40″E
temp.,
°C
wind,
m/s
gust,
m/s
humid.,
%
clouds,
%
prec.,
mm/h
press.,
hPa
HPBL,
m
5 august, thu
thu500:00+18nne119134 3.1 101512
03:00+17se2291100 3.6 101428
06:00+17s2293100 0.0 101323
09:00+21sse3480100 0.0 1012313
12:00+26sse455999 0.0 10111026
15:00+30s57445 0.0 10092059
18:00+29sse57452 0.0 10061725
21:00+26se6135630 0.0 1004422
6 august, fri
fri600:00+24sse7166299 0.0 1003609
03:00+20s101682100 1.2 1004801
06:00+17se3892100 15.9 1004255
09:00+21se468444 15.9 1003351
12:00+25sw3464100 0.4 1003946
15:00+28wsw3550100 0.6 10021911
18:00+20nw81179100 1.6 1003534
21:00+19nw6117497 1.7 1007445
7 august, sat
sat700:00+16nw398115 0.0 1008269
03:00+15nw37840 0.0 1010181
06:00+14nw22870 0.0 101124
09:00+19nw23671 0.0 1012371
12:00+23wnw34510 0.0 10121325
15:00+26w34441 0.0 10121867
18:00+26w23420 0.0 10121858
21:00+21sse22565 0.0 101311
8 august, sun
sun800:00+19s11620 0.0 101411
03:00+18s11670 0.0 101511
06:00+17se22720 0.0 101512
09:00+22sse345927 0.0 1016311
12:00+27s4546100 0.0 10161157
15:00+29s443855 0.0 10151551
18:00+29s343842 0.0 10151393
21:00+23se22545 0.0 101612
9 august, mon
mon900:00+21se22595 0.0 101621
03:00+20se22605 0.0 101720
06:00+19se226232 0.0 101619
09:00+24s245293 0.0 1017269
12:00+28sse224053 0.0 1017986
15:00+31sse33355 0.0 10161484
18:00+31sse22335 0.0 10161738
21:00+27ene114415 0.1 101613